When you browse on this site, cookies collect data to enhance your experience and personalize the content and advertising you see.
Visit our Privacy Policy to learn more. By continuing to use the site, you agree to this use of cookies and data.
  • în România
  • Lista ţărilor
  • Pe 7 zile
  • Temperatura apei
  • Hartă satelitară
  • Meteo pe hartă
  • Widget-uri
  • user-avatar
    Intrare

    Meteo pe oră la Golub-Dobrzyń

    Astăzi, 25 Aprilie, Joi

    Timp Temperatura Precipitaţii Vânt Presiune Umiditate
    00:00 +14°C° 0 mm 5 m/s 753 mmHg 75%
    01:00 +13°C° 0 mm 5 m/s 753 mmHg 79%
    02:00 +12°C° 0 mm 5 m/s 753 mmHg 80%
    03:00 +12°C° 0 mm 5 m/s 753 mmHg 81%
    04:00 +12°C° 0 mm 5 m/s 753 mmHg 83%
    05:00 +13°C° 0 mm 5 m/s 753 mmHg 80%
    06:00 +14°C° 0 mm 5 m/s 753 mmHg 78%
    07:00 +15°C° 0 mm 5 m/s 753 mmHg 76%
    08:00 +17°C° 0 mm 5 m/s 753 mmHg 70%
    09:00 +19°C° 0 mm 5 m/s 753 mmHg 65%
    10:00 +21°C° 0 mm 5 m/s 753 mmHg 59%
    11:00 +22°C° 0 mm 5 m/s 753 mmHg 57%
    12:00 +23°C° 0 mm 5 m/s 753 mmHg 55%
    13:00 +23°C° 0 mm 5 m/s 752 mmHg 53%
    14:00 +23°C° 0 mm 4 m/s 752 mmHg 53%
    15:00 +23°C° 0 mm 4 m/s 752 mmHg 53%
    16:00 +23°C° 0 mm 4 m/s 752 mmHg 54%
    17:00 +21°C° 0 mm 3 m/s 752 mmHg 60%
    18:00 +20°C° 0 mm 2 m/s 752 mmHg 66%
    19:00 +19°C° 0 mm 1 m/s 752 mmHg 72%
    20:00 +18°C° 0 mm 1 m/s 752 mmHg 75%
    21:00 +18°C° 0 mm 1 m/s 752 mmHg 78%
    22:00 +16°C° 0 mm 1 m/s 752 mmHg 81%
    23:00 +16°C° 0 mm 2 m/s 752 mmHg 83%

    Mâine, 26 Aprilie, Vineri

    Timp Temperatura Precipitaţii Vânt Presiune Umiditate
    00:00 +15°C° 0 mm 2 m/s 752 mmHg 85%
    01:00 +15°C° 0 mm 2 m/s 752 mmHg 87%
    02:00 +15°C° 0 mm 2 m/s 752 mmHg 88%
    03:00 +14°C° 0 mm 2 m/s 751 mmHg 89%
    04:00 +14°C° 0 mm 2 m/s 751 mmHg 91%
    05:00 +14°C° 0 mm 3 m/s 751 mmHg 85%
    06:00 +17°C° 0 mm 3 m/s 751 mmHg 80%
    07:00 +18°C° 0 mm 3 m/s 750 mmHg 74%
    08:00 +20°C° 0 mm 4 m/s 750 mmHg 68%
    09:00 +21°C° 0 mm 4 m/s 750 mmHg 61%
    10:00 +23°C° 0 mm 4 m/s 749 mmHg 54%
    11:00 +25°C° 0 mm 4 m/s 749 mmHg 50%
    12:00 +26°C° 0 mm 5 m/s 749 mmHg 47%
    13:00 +26°C° 0 mm 5 m/s 748 mmHg 44%
    14:00 +26°C° 0 mm 5 m/s 748 mmHg 45%
    15:00 +26°C° 0 mm 4 m/s 747 mmHg 46%
    16:00 +26°C° 0 mm 4 m/s 747 mmHg 48%
    17:00 +24°C° 0 mm 3 m/s 747 mmHg 52%
    18:00 +23°C° 0 mm 2 m/s 747 mmHg 57%
    19:00 +20°C° 0 mm 2 m/s 747 mmHg 61%
    20:00 +19°C° 0 mm 2 m/s 747 mmHg 64%
    21:00 +19°C° 0 mm 2 m/s 746 mmHg 66%
    22:00 +18°C° 0 mm 2 m/s 746 mmHg 68%
    23:00 +17°C° 0 mm 2 m/s 746 mmHg 70%

    Poimâine, 27 Aprilie, Sâmbătă

    Timp Temperatura Precipitaţii Vânt Presiune Umiditate
    00:00 +17°C° 0 mm 2 m/s 746 mmHg 72%
    01:00 +17°C° 0 mm 2 m/s 746 mmHg 74%
    02:00 +16°C° 0 mm 1 m/s 746 mmHg 76%
    03:00 +16°C° 0 mm 1 m/s 746 mmHg 78%
    04:00 +15°C° 0 mm 1 m/s 746 mmHg 81%
    05:00 +16°C° 0 mm 2 m/s 747 mmHg 80%
    06:00 +17°C° 0 mm 4 m/s 747 mmHg 80%
    07:00 +16°C° 0 mm 5 m/s 747 mmHg 80%
    08:00 +16°C° 0 mm 6 m/s 748 mmHg 79%
    09:00 +16°C° 0 mm 6 m/s 748 mmHg 79%
    10:00 +16°C° 0 mm 6 m/s 748 mmHg 79%
    11:00 +16°C° 0 mm 6 m/s 749 mmHg 77%
    12:00 +16°C° 0 mm 6 m/s 749 mmHg 75%
    13:00 +15°C° 0 mm 6 m/s 749 mmHg 73%
    14:00 +15°C° 0 mm 6 m/s 749 mmHg 73%
    15:00 +14°C° 0 mm 6 m/s 750 mmHg 73%
    16:00 +14°C° 0 mm 5 m/s 750 mmHg 73%
    17:00 +13°C° 0 mm 5 m/s 750 mmHg 73%
    18:00 +13°C° 0 mm 4 m/s 750 mmHg 73%
    19:00 +12°C° 0 mm 4 m/s 751 mmHg 73%
    20:00 +11°C° 0 mm 3 m/s 751 mmHg 76%
    21:00 +10°C° 0 mm 3 m/s 751 mmHg 79%
    22:00 +9°C° 0 mm 3 m/s 752 mmHg 83%
    23:00 +9°C° 0 mm 3 m/s 752 mmHg 84%

    28 Aprilie, Duminică

    Timp Temperatura Precipitaţii Vânt Presiune Umiditate
    00:00 +8°C° 0 mm 3 m/s 752 mmHg 85%
    01:00 +7°C° 0 mm 3 m/s 752 mmHg 86%
    02:00 +7°C° 0 mm 3 m/s 752 mmHg 86%
    03:00 +7°C° 0 mm 3 m/s 753 mmHg 86%
    04:00 +7°C° 0 mm 3 m/s 753 mmHg 85%
    05:00 +8°C° 0 mm 3 m/s 753 mmHg 83%
    06:00 +9°C° 0 mm 3 m/s 753 mmHg 81%
    07:00 +10°C° 0 mm 4 m/s 753 mmHg 79%
    08:00 +11°C° 0 mm 4 m/s 753 mmHg 74%
    09:00 +13°C° 0 mm 4 m/s 754 mmHg 70%
    10:00 +14°C° 0 mm 4 m/s 754 mmHg 65%
    11:00 +15°C° 0 mm 4 m/s 754 mmHg 64%
    12:00 +17°C° 0 mm 4 m/s 754 mmHg 62%
    13:00 +17°C° 0 mm 4 m/s 754 mmHg 60%
    14:00 +17°C° 0 mm 4 m/s 754 mmHg 63%
    15:00 +17°C° 0 mm 4 m/s 754 mmHg 66%
    16:00 +17°C° 0 mm 4 m/s 754 mmHg 69%
    17:00 +15°C° 0 mm 4 m/s 754 mmHg 74%
    18:00 +14°C° 0 mm 4 m/s 754 mmHg 78%
    19:00 +13°C° 0 mm 4 m/s 754 mmHg 83%
    20:00 +12°C° 0 mm 4 m/s 754 mmHg 86%
    21:00 +12°C° 0 mm 4 m/s 755 mmHg 88%
    22:00 +11°C° 0 mm 4 m/s 755 mmHg 90%
    23:00 +12°C° 0 mm 4 m/s 755 mmHg 89%

    29 Aprilie, Luni

    Timp Temperatura Precipitaţii Vânt Presiune Umiditate
    00:00 +12°C° 0 mm 4 m/s 755 mmHg 88%
    01:00 +13°C° 0 mm 5 m/s 755 mmHg 87%
    02:00 +12°C° 0 mm 5 m/s 755 mmHg 86%
    03:00 +10°C° 0 mm 5 m/s 755 mmHg 85%
    04:00 +10°C° 0 mm 5 m/s 755 mmHg 83%
    05:00 +10°C° 0 mm 6 m/s 756 mmHg 79%
    06:00 +11°C° 0 mm 6 m/s 756 mmHg 75%
    07:00 +11°C° 0 mm 6 m/s 756 mmHg 71%
    08:00 +12°C° 0 mm 7 m/s 756 mmHg 63%
    09:00 +15°C° 0 mm 7 m/s 757 mmHg 56%
    10:00 +16°C° 0 mm 8 m/s 757 mmHg 48%
    11:00 +16°C° 0 mm 7 m/s 757 mmHg 45%
    12:00 +17°C° 0 mm 7 m/s 757 mmHg 42%
    13:00 +17°C° 0 mm 7 m/s 757 mmHg 39%
    14:00 +17°C° 0 mm 7 m/s 757 mmHg 40%
    15:00 +17°C° 0 mm 7 m/s 757 mmHg 41%
    16:00 +16°C° 0 mm 7 m/s 757 mmHg 42%
    17:00 +15°C° 0 mm 6 m/s 757 mmHg 47%
    18:00 +13°C° 0 mm 6 m/s 758 mmHg 51%
    19:00 +12°C° 0 mm 5 m/s 758 mmHg 56%
    20:00 +10°C° 0 mm 5 m/s 758 mmHg 57%
    21:00 +9°C° 0 mm 5 m/s 759 mmHg 57%
    22:00 +8°C° 0 mm 5 m/s 759 mmHg 58%
    23:00 +7°C° 0 mm 5 m/s 759 mmHg 59%

    30 Aprilie, Marţi

    Timp Temperatura Precipitaţii Vânt Presiune Umiditate
    00:00 +7°C° 0 mm 5 m/s 759 mmHg 61%
    01:00 +6°C° 0 mm 4 m/s 759 mmHg 63%
    02:00 +6°C° 0 mm 4 m/s 760 mmHg 64%
    03:00 +5°C° 0 mm 4 m/s 760 mmHg 65%
    04:00 +5°C° 0 mm 4 m/s 760 mmHg 67%
    05:00 +6°C° 0 mm 5 m/s 760 mmHg 64%
    06:00 +7°C° 0 mm 5 m/s 760 mmHg 61%
    07:00 +8°C° 0 mm 5 m/s 760 mmHg 58%
    08:00 +9°C° 0 mm 6 m/s 760 mmHg 53%
    09:00 +10°C° 0 mm 6 m/s 760 mmHg 48%
    10:00 +13°C° 0 mm 6 m/s 760 mmHg 44%
    11:00 +13°C° 0 mm 6 m/s 760 mmHg 41%
    12:00 +14°C° 0 mm 6 m/s 759 mmHg 39%
    13:00 +15°C° 0 mm 6 m/s 759 mmHg 37%
    14:00 +15°C° 0 mm 6 m/s 759 mmHg 37%
    15:00 +15°C° 0 mm 6 m/s 758 mmHg 38%
    16:00 +15°C° 0 mm 6 m/s 758 mmHg 39%
    17:00 +13°C° 0 mm 5 m/s 758 mmHg 45%
    18:00 +12°C° 0 mm 4 m/s 758 mmHg 51%
    19:00 +11°C° 0 mm 3 m/s 758 mmHg 57%
    20:00 +10°C° 0 mm 3 m/s 758 mmHg 61%
    21:00 +8°C° 0 mm 3 m/s 759 mmHg 64%
    22:00 +7°C° 0 mm 3 m/s 759 mmHg 68%
    23:00 +7°C° 0 mm 3 m/s 759 mmHg 71%
    Arată mai mult